SCP
1 0 0 0 0 0 0 0 0 0 0 0 0 0 0 1 1 1 1 1 1 1 2 2 3 3 4 3 3 2 2 1 1 1 1 1 0 0 1 1 1 2 2 1 1 1 0 0 0
1 0 0 0 0 0 0 0 0 0 0 0 0 0 1 1 1 1 1 1 1 1 2 2 3 4 4 4 3 3 2 2 2 1 1 1 1 0 1 1 1 1 1 1 1 0 0 0 0
0 0 0 0 0 0 0 0 0 0 0 0 0 1 1 1 1 1 1 1 1 2 2 3 4 4 4 4 4 4 3 3 2 2 1 1 1 1 1 1 1 1 1 1 1 0 0 0 0
1 1 0 0 0 0 0 0 0 0 0 0 0 1 1 1 1 1 1 1 2 2 2 3 4 5 5 5 5 4 4 4 3 3 2 1 1 1 1 1 1 1 1 1 1 1 1 0 0
1 1 0 0 0 0 0 0 0 0 0 0 0 1 1 1 1 1 1 1 2 2 2 3 4 5 5 5 5 5 5 5 4 4 3 2 1 1 1 1 1 1 1 1 1 1 1 1 0
1 1 0 0 0 0 0 0 0 0 0 0 0 0 1 1 1 1 1 1 2 1 2 2 3 3 4 5 5 5 5 5 5 4 3 2 2 1 1 1 1 1 1 1 1 1 1 1 1
1 0 0 0 0 0 0 0 0 0 0 0 0 1 1 1 1 1 1 1 1 1 2 2 2 2 3 3 4 4 5 5 5 5 4 3 2 2 1 1 1 1 1 1 1 1 1 1 1
0 0 0 0 0 0 0 0 0 0 0 0 1 1 1 1 2 2 2 2 2 1 2 2 2 2 2 2 3 3 4 5 5 5 4 3 2 2 2 1 1 1 1 1 1 1 1 1 1
1 0 0 0 0 0 0 0 0 0 0 0 1 1 2 2 2 2 2 2 2 2 2 2 2 2 2 2 2 3 4 4 4 4 3 3 2 2 2 1 1 1 1 1 1 1 1 1 1
1 0 0 0 0 0 0 0 0 0 0 1 1 1 2 2 2 2 2 2 2 2 2 2 2 2 2 2 2 3 3 4 4 3 3 3 2 2 1 1 1 1 1 1 1 1 1 1 1
0 0 0 0 0 0 0 0 0 0 0 1 1 1 2 2 2 2 1 1 2 2 2 2 2 2 2 3 3 3 3 4 4 3 3 3 2 2 2 1 1 1 1 1 1 1 1 1 1
0 0 0 0 0 0 0 0 0 0 0 1 1 1 1 2 2 1 1 1 1 1 2 2 2 2 2 3 3 4 3 4 4 3 3 3 2 2 2 1 1 1 1 1 1 1 1 1 1
0 0 0 0 0 0 0 0 0 0 0 1 1 2 1 2 2 2 1 1 1 2 2 2 2 2 2 3 3 4 3 3 3 3 3 3 2 2 2 1 1 1 1 1 1 1 1 1 1
0 0 0 0 0 0 0 0 0 0 0 1 1 2 1 1 1 2 2 2 2 2 2 2 2 2 2 2 3 4 3 3 3 3 3 2 2 2 2 1 1 1 1 1 1 1 1 1 1
0 0 0 0 0 0 0 0 0 0 0 1 1 2 2 1 1 1 2 2 2 2 2 2 2 2 2 2 3 3 3 3 3 3 3 2 2 2 2 1 1 1 1 1 1 1 0 0 0
0 0 0 0 0 0 0 0 0 0 0 0 1 2 2 2 2 1 1 1 1 1 2 1 1 1 2 2 2 3 4 4 3 3 2 2 2 2 2 2 1 1 1 1 1 0 0 0 0
0 0 0 0 0 0 0 0 0 0 0 0 1 2 3 3 2 1 1 1 1 1 1 1 1 1 1 2 3 3 3 4 3 3 2 2 2 2 2 2 1 1 1 1 1 0 0 0 0
0 0 0 0 0 0 0 0 0 0 0 0 1 2 3 3 2 1 1 1 1 1 1 1 1 1 1 2 3 3 3 3 3 3 2 2 2 2 2 2 1 1 1 1 1 0 0 0 0
0 0 0 0 0 0 0 0 0 0 0 0 1 2 3 3 2 1 1 1 1 1 1 1 1 1 1 2 3 3 3 3 3 3 2 2 2 2 1 1 1 1 1 1 1 0 0 0 0
0 0 0 0 0 0 0 0 0 0 0 0 0 1 2 2 2 2 1 1 1 1 1 1 1 1 1 2 2 3 3 3 3 3 2 2 2 1 1 1 1 0 0 1 0 0 0 0 0
0 0 0 0 0 0 0 0 0 0 0 0 0 1 1 2 2 2 1 1 1 1 1 1 1 0 1 2 2 2 3 3 3 3 2 2 1 1 1 1 0 0 0 0 0 0 0 0 0
0 0 0 0 0 0 0 0 0 0 0 1 0 0 1 1 1 2 1 1 1 1 1 1 1 1 1 1 2 2 2 3 3 3 2 1 1 1 1 0 0 0 0 0 0 0 0 0 0
0 0 0 0 0 0 0 0 0 0 0 1 1 0 0 1 1 1 1 1 1 1 1 1 1 1 1 1 1 2 2 2 2 2 2 1 1 1 1 0 0 0 0 0 0 0 0 0 0
0 0 0 0 0 0 0 0 0 0 0 1 1 0 0 1 1 1 1 1 1 1 1 1 1 1 1 1 1 2 2 2 2 2 1 1 1 1 1 1 0 0 0 0 0 0 0 0 0
0 0 0 0 0 0 0 0 0 0 0 0 1 0 0 0 1 1 1 1 1 1 1 1 1 1 1 1 1 2 2 2 2 2 1 1 1 1 1 1 1 1 1 1 0 0 0 0 0
0 0 0 0 0 0 0 0 0 0 0 0 0 0 0 0 1 1 1 1 1 1 1 1 1 1 1 1 1 1 2 1 1 1 1 1 1 1 1 1 1 1 1 1 1 0 0 0 0
0 0 0 0 0 0 0 0 0 0 0 0 0 0 0 0 0 1 1 1 1 1 1 1 1 1 1 1 1 1 1 1 1 1 1 1 1 1 1 1 1 1 1 1 1 1 0 0 0
0 0 0 0 0 0 0 0 0 0 0 0 0 0 0 0 0 0 1 1 1 1 1 1 1 1 1 1 1 1 1 0 0 0 0 0 0 1 1 1 1 1 1 1 1 1 1 0 0
0 0 0 0 0 0 0 0 0 0 0 0 0 0 0 0 0 0 0 1 1 1 1 1 1 1 1 1 1 1 0 0 0 0 0 0 0 0 1 1 1 1 1 1 1 1 1 1 0
0 0 0 0 0 0 0 0 0 0 0 0 0 0 0 0 0 0 0 0 1 1 1 1 1 1 1 1 1 1 1 0 0 0 0 0 0 0 0 0 1 1 1 1 1 1 1 1 1
Wind_Speed
11 9 5 2 2 4 6 4 1 4 3 5 5 3 5 7 6 7 4 5 7 9 9 8 8 9 9 9 9 9 9 9 9 9 9 9 10 9 9 9 9 9 9 10 10 10 10 10 10
9 7 3 2 3 5 4 2 3 5 5 4 3 2 4 6 7 8 5 5 7 9 9 8 8 9 9 9 9 9 9 8 8 8 8 8 9 9 9 9 8 8 9 9 10 10 10 10 9
9 6 3 3 4 4 1 4 6 6 4 2 1 4 5 5 6 5 5 5 7 8 8 9 8 8 9 9 9 9 9 8 8 8 8 8 8 8 8 9 9 9 9 9 9 9 9 9 8
4 2 3 4 6 3 1 3 5 5 2 1 2 5 5 5 4 5 6 6 7 7 8 8 8 8 8 8 8 8 8 8 8 8 8 8 8 8 8 8 8 8 8 8 8 8 8 8 7
3 3 4 5 6 2 2 4 3 3 2 2 1 4 5 5 7 7 5 6 7 7 7 8 8 8 7 8 8 8 8 8 8 8 8 8 8 8 8 8 7 7 7 7 7 8 8 7 7
2 3 4 6 5 2 2 2 1 1 1 2 1 3 5 5 6 5 5 6 6 7 7 7 7 7 7 7 7 7 7 7 7 7 8 8 7 7 7 7 7 7 7 7 6 7 7 7 7
3 3 6 6 4 2 2 2 1 1 0 2 1 3 5 5 5 4 5 6 7 6 6 5 5 5 6 6 6 6 6 6 7 7 7 7 6 6 6 6 7 7 7 7 6 6 6 6 6
3 3 5 5 4 2 2 2 2 2 1 2 3 2 4 5 5 4 5 6 6 5 4 4 4 4 3 3 5 6 6 6 6 6 6 5 5 5 5 5 6 6 6 6 6 6 6 5 5
3 3 5 4 2 1 3 1 1 1 1 1 2 4 6 8 6 5 4 4 4 4 3 3 3 3 3 2 4 4 4 5 5 4 4 3 2 3 3 4 5 5 6 6 6 6 6 5 5
2 3 3 2 2 1 1 1 1 1 2 1 3 6 8 6 5 5 4 4 3 3 3 3 3 3 2 2 2 2 2 2 2 2 2 1 2 2 3 4 4 4 5 5 6 5 4 3 2
2 3 2 3 4 2 1 1 1 2 2 1 2 6 6 5 4 4 3 3 3 3 2 3 3 2 2 1 1 1 1 1 1 2 2 2 2 1 2 2 2 2 2 2 3 2 1 1 2
3 3 3 2 3 1 2 2 2 2 2 1 3 6 6 6 5 4 3 3 3 3 2 2 2 2 2 1 1 1 1 1 1 1 1 1 1 1 1 1 1 1 1 1 1 1 1 2 2
4 3 2 2 1 1 3 4 3 3 2 2 3 4 5 4 4 3 2 2 3 3 2 2 2 2 2 1 1 1 1 1 1 1 1 2 1 1 1 1 1 1 1 1 1 1 2 2 2
1 2 3 3 3 2 2 5 3 4 1 1 3 4 4 4 3 3 3 2 2 3 3 2 3 2 2 1 1 1 1 1 1 1 1 1 1 1 1 1 1 1 1 1 1 1 1 1 1
1 3 4 5 4 1 1 6 6 4 2 2 3 3 3 3 3 3 3 3 3 2 3 3 2 2 2 2 1 1 1 1 1 1 1 1 1 1 1 1 1 1 1 1 1 1 1 1 1
4 4 4 4 4 3 3 6 4 4 3 3 3 3 4 4 4 3 3 3 3 3 3 3 2 2 2 2 1 1 1 1 1 1 1 1 1 1 1 1 1 0 0 1 1 1 1 1 1
5 5 5 4 5 3 4 6 4 3 4 5 4 3 3 4 3 3 3 3 3 3 3 3 3 3 2 1 1 1 1 1 1 1 1 1 1 1 1 1 0 1 0 0 0 1 1 0 0
4 5 5 5 4 4 6 7 5 3 4 5 4 3 2 2 2 2 2 3 3 3 3 3 3 3 2 1 1 1 1 1 1 1 1 1 1 1 1 0 0 1 1 0 0 1 1 0 0
5 6 6 4 1 4 7 8 7 4 4 3 3 2 2 2 2 3 3 4 3 3 3 3 3 3 2 2 2 1 1 1 1 1 1 1 1 1 1 0 0 0 1 1 1 1 1 0 1
6 7 6 4 2 3 6 9 8 6 5 4 3 3 2 2 2 3 3 3 3 3 3 3 4 3 3 2 2 2 2 1 1 1 1 1 1 1 1 1 1 1 0 0 1 1 1 0 0
6 5 5 4 3 5 5 7 7 5 4 3 3 3 3 3 3 3 3 4 3 3 3 3 4 4 3 3 2 1 1 1 1 1 1 1 1 1 1 1 1 1 1 1 1 1 1 1 1
5 2 3 4 3 3 3 5 6 6 5 5 4 3 3 2 2 3 3 3 3 3 3 2 3 3 3 3 3 4 2 2 2 2 2 2 1 1 1 1 1 1 1 1 2 1 1 2 1
2 3 3 4 4 4 4 5 6 5 5 6 5 4 3 2 2 3 3 3 3 3 3 3 3 3 3 3 4 4 3 2 1 1 2 2 1 1 1 1 1 1 1 1 1 1 1 1 2
1 2 3 2 1 5 7 6 6 4 5 5 5 4 3 3 2 2 2 2 2 2 2 3 4 4 4 4 4 4 4 3 3 2 3 2 1 1 2 2 2 2 2 2 2 2 2 2 1
0 1 1 1 3 6 4 5 7 2 2 3 4 4 3 2 2 2 2 2 2 3 3 3 4 4 3 3 3 4 4 4 4 4 3 3 2 2 2 2 2 2 2 2 2 2 3 3 2
4 3 3 3 4 3 2 7 5 2 2 1 3 4 3 3 2 2 3 3 2 3 3 3 3 3 3 4 4 3 4 3 3 3 3 3 3 3 3 2 2 2 2 2 2 2 2 2 2
2 3 1 1 3 4 6 4 2 2 1 1 1 2 2 1 1 2 2 3 3 3 3 3 3 3 3 4 3 3 3 3 3 3 3 3 2 2 3 3 3 2 2 2 2 2 2 2 3
2 0 1 2 2 5 6 5 4 3 2 1 1 1 0 1 1 1 1 2 2 3 3 2 3 3 3 3 3 2 2 2 3 3 3 3 3 3 3 4 4 3 3 3 3 2 2 2 3
2 2 2 2 3 3 4 4 1 2 2 2 0 0 0 1 1 1 1 0 1 2 2 2 3 3 3 3 2 2 2 2 2 3 3 3 3 3 4 4 4 4 4 4 3 3 3 3 3
2 3 4 3 4 3 4 5 2 3 3 2 1 1 2 2 2 1 1 1 1 1 2 2 3 3 2 2 2 2 2 2 2 3 3 3 3 3 3 3 3 4 4 4 4 4 4 4 4
Wind_Direction
298 267 249 253 242 231 238 237 92 79 63 45 38 30 42 35 42 100 117 87 99 109 114 106 94 92 88 85 82 81 83 82 80 79 78 78 77 72 67 70 77 77 75 74 74 73 71 70 69
292 281 262 239 242 240 229 185 86 73 71 64 42 37 69 70 71 100 106 98 103 110 113 108 96 93 90 88 84 80 78 81 82 80 78 79 79 74 69 67 72 76 75 75 75 73 71 70 67
273 268 252 236 240 252 295 78 85 86 86 83 75 41 46 67 82 93 103 114 103 103 108 108 102 98 94 90 87 83 79 75 79 81 80 79 78 76 75 71 68 70 73 76 77 75 72 69 67
272 246 242 245 250 264 352 69 84 91 86 97 106 84 71 56 72 96 108 108 101 99 104 111 104 102 98 93 89 84 79 74 74 76 78 80 79 79 78 76 73 69 71 75 77 75 73 70 66
247 247 234 237 247 244 47 62 87 131 156 162 140 102 88 73 88 101 106 99 99 97 102 113 106 103 101 96 90 86 80 75 73 72 73 77 78 78 77 76 76 75 77 80 80 77 73 71 66
256 248 242 234 233 199 123 96 116 164 142 114 107 105 104 102 97 106 102 96 94 97 100 111 108 104 100 96 92 88 83 79 77 74 70 70 72 77 78 75 74 75 83 84 82 81 75 71 68
268 254 252 255 240 193 112 83 72 270 86 69 18 89 115 106 106 111 104 93 87 88 95 104 110 106 97 93 91 89 86 81 76 75 73 69 67 71 76 76 73 74 81 84 82 80 77 72 67
298 280 253 247 241 209 104 82 30 350 5 53 15 75 121 129 121 111 101 95 92 87 88 99 103 101 102 101 96 91 90 83 76 72 70 67 66 67 71 72 71 73 77 83 85 84 81 74 67
273 254 250 250 256 157 112 127 99 1 359 57 56 58 108 125 129 121 112 105 105 101 94 93 102 99 100 111 104 98 98 94 88 83 76 65 63 69 71 72 69 73 75 83 82 88 80 71 64
242 242 258 320 357 19 119 171 182 217 220 156 93 88 109 126 137 141 145 141 132 123 113 105 101 107 109 108 109 120 112 119 112 105 93 74 55 60 74 77 71 65 71 79 76 75 73 64 58
246 252 285 346 22 16 316 229 215 238 238 196 126 126 128 137 148 155 152 146 138 123 111 106 106 109 111 105 119 123 123 124 116 102 96 89 77 72 76 82 73 63 63 65 72 73 66 59 61
246 277 294 333 28 7 308 290 274 266 278 40 101 126 142 157 167 172 169 157 141 130 115 102 106 110 109 105 102 111 102 104 81 91 97 90 82 71 71 79 81 74 65 67 62 63 62 62 57
236 251 270 303 320 286 298 281 273 260 297 36 98 130 146 163 172 172 159 154 140 138 132 116 118 110 106 108 114 93 94 93 85 78 91 90 96 92 75 70 80 74 70 72 57 42 54 52 42
268 271 262 252 250 238 267 277 255 246 187 155 152 155 161 175 171 158 153 168 159 146 140 130 133 129 122 115 118 123 117 106 103 86 79 95 95 101 99 82 71 73 89 84 73 58 57 44 54
231 251 251 226 219 196 294 268 231 226 185 198 180 168 167 177 174 177 174 177 169 150 133 132 136 137 140 142 150 137 147 134 122 114 110 98 97 114 112 106 88 70 87 90 91 76 57 45 62
219 226 238 211 194 174 215 258 236 185 192 208 207 187 187 188 182 176 172 166 159 145 141 148 139 139 150 159 156 148 133 134 129 123 132 118 98 110 104 108 109 90 82 93 104 108 79 35 18
216 235 236 222 188 187 217 256 254 189 202 217 212 201 199 191 183 170 169 161 154 153 152 156 148 146 156 159 146 141 132 131 121 116 113 122 99 101 108 129 134 130 102 99 114 84 115 87 6
231 249 247 233 189 204 228 249 260 225 222 230 220 201 195 178 174 154 153 153 152 149 147 152 147 145 148 140 115 121 126 124 106 110 109 115 114 114 106 122 138 140 130 121 115 108 85 116 250
273 269 268 271 226 230 242 257 261 242 233 230 225 191 175 180 162 153 155 146 143 145 152 160 156 159 157 159 159 164 166 161 165 160 156 146 133 117 113 124 130 133 156 181 160 129 121 19 22
267 264 273 283 264 257 258 261 258 238 222 220 216 188 179 176 164 161 152 148 152 157 165 175 171 174 173 174 174 177 174 182 183 186 174 177 167 140 136 142 168 187 148 160 151 142 146 301 94
257 259 271 279 294 255 266 271 243 225 207 203 212 186 185 183 179 168 165 160 158 164 177 186 180 180 177 158 153 152 128 127 168 189 188 183 168 156 151 174 179 181 163 193 188 184 173 194 232
265 310 305 289 287 255 222 273 246 215 207 209 212 201 196 191 168 160 167 168 171 174 176 183 181 179 180 169 170 169 176 197 219 200 198 197 179 171 171 190 204 192 186 188 204 189 202 171 201
298 348 301 270 266 280 240 244 266 208 216 207 202 197 186 182 173 166 168 175 171 168 176 186 183 187 186 181 181 180 185 198 201 189 190 202 191 184 192 200 205 207 193 186 206 190 199 196 190
333 326 283 264 252 254 223 217 262 215 207 195 186 189 186 185 180 162 161 159 160 165 179 191 190 194 189 183 184 185 188 184 189 202 203 205 204 202 203 210 214 215 202 192 204 200 197 209 207
343 67 333 255 224 242 209 219 244 216 166 176 180 188 187 178 174 171 175 180 182 182 189 199 195 196 190 185 192 194 194 188 196 203 202 200 206 220 215 218 215 219 217 198 188 207 206 201 207
218 205 194 226 243 268 217 232 243 167 96 101 158 177 184 181 179 187 187 188 193 194 193 198 194 195 193 192 197 197 197 196 201 206 203 205 209 212 207 217 223 226 233 221 198 208 220 198 205
217 222 242 279 289 273 240 236 248 143 123 74 115 151 185 184 189 204 197 190 188 193 202 205 204 200 201 203 201 198 201 204 204 203 204 210 213 212 201 208 217 224 225 224 212 209 221 212 206
257 209 140 198 241 261 259 236 231 191 192 171 175 173 327 1 331 259 202 179 187 194 201 202 212 211 208 210 206 206 202 213 211 202 205 210 213 210 206 208 209 214 219 218 213 218 213 223 226
196 195 217 231 237 247 269 268 358 155 148 148 153 64 7 338 335 340 340 327 186 184 190 210 211 210 208 209 202 196 206 212 211 209 208 209 211 207 209 213 208 211 217 217 208 216 211 221 238
230 207 181 196 246 242 264 272 22 72 69 56 15 6 2 358 348 343 340 352 323 243 206 214 218 207 205 211 203 205 208 204 210 210 213 210 214 213 211 214 214 215 218 218 209 214 216 218 231